SCP
0 -0 -0 -0 -0 -0 -0 -0 -0 -0 -0 -0 0 -0 -0 -0 -0 -0 -0 -0 -0 -0 -0 -0 -0 -0 -0 -0 -0 -0 -0 -0 -0 -0 -0 -0 -0 0 0 0 0 0 0
-0 -0 -0 -0 -0 -0 -0 -0 -0 -0 -0 -0 0 -0 -0 -0 -0 -0 -0 -0 -0 -0 -0 -0 -0 -0 -0 -0 -0 -0 -0 -0 -0 -0 -0 -0 -0 -0 0 0 0 0 0
-0 -0 -0 -0 -0 -0 -0 -0 -0 -0 -0 -0 -0 -0 -0 -0 -0 -0 -0 -0 -0 -0 -0 -0 -0 -0 -0 -0 -0 -0 -0 -0 -0 -0 -0 0 0 -0 0 0 0 0 0
0 0 0 -0 -0 -0 -0 -0 -0 -0 -0 -0 -0 -0 -0 -0 -0 -0 -0 -0 -0 -0 -0 -0 -0 -0 -0 -0 -0 -0 -0 -0 -0 -0 0 0 0 -0 -0 0 0 0 0
0 0 0 0 -0 -0 -0 -0 -0 -0 -0 -0 -0 -0 -0 -0 -0 -0 -0 -0 -0 -0 -0 -0 -0 -0 -0 -0 -0 -0 -0 -0 -0 -0 -0 -0 0 -0 -0 -0 0 0 0
0 0 0 0 0 -0 0 0 -0 -0 -0 -0 -0 -0 -0 -0 -0 -0 -0 -0 -0 -0 -0 -0 -0 -0 -0 -0 -0 -0 -0 -0 -0 0 0 -0 0 -0 -0 -0 0 0 0
0 0 0 0 0 -0 0 0 0 0 0 -0 -0 -0 -0 -0 -0 -0 -0 -0 -0 -0 -0 -0 -0 -0 -0 -0 0 -0 -0 -0 0 0 0 0 0 -0 -0 -0 -0 -0 0
-0 0 0 0 0 0 0 0 0 0 0 0 0 0 0 0 0 0 0 0 0 0 0 -0 0 0 0 0 0 0 -0 -0 0 0 0 0 -0 -0 -0 -0 -0 -0 -0
0 0 0 0 0 0 0 0 0 0 0 0 0 0 0 0 0 0 0 0 0 0 0 0 0 0 0 0 0 0 0 0 0 0 0 0 0 0 0 0 0 0 0
0 0 0 0 0 0 0 0 0 0 0 0 0 0 0 0 0 0 0 0 0 0 0 0 0 0 0 0 0 0 0 0 0 0 0 0 0 0 0 0 0 0 0
0 0 0 0 0 0 0 0 0 0 0 0 0 0 0 0 0 0 0 0 0 0 0 0 0 0 0 0 0 0 0 0 0 0 0 0 0 0 0 0 0 0 0
0 0 0 0 0 0 0 0 0 0 0 0 0 0 0 0 0 0 0 0 0 0 0 0 0 0 0 0 0 0 0 0 0 0 0 0 0 0 0 0 0 0 0
0 0 0 0 0 0 0 0 0 0 0 0 0 0 0 0 0 0 0 0 0 0 0 0 0 0 0 0 0 0 0 0 0 0 0 0 0 0 0 0 0 0 0
0 0 0 0 0 0 0 0 0 0 0 0 0 0 0 0 0 0 0 0 0 0 0 0 0 0 0 0 0 0 0 0 0 0 0 0 0 0 0 0 0 0 0
0 0 0 0 0 0 0 0 0 0 0 0 0 0 0 0 0 0 0 0 0 0 0 0 0 0 0 0 0 0 0 0 0 0 0 0 0 0 0 0 0 0 0
0 0 0 0 0 0 0 0 0 0 0 0 0 0 0 0 0 0 0 0 0 0 0 0 0 0 0 0 0 0 0 0 0 0 0 0 0 0 0 0 0 0 0
0 0 0 0 0 0 0 0 0 0 0 0 0 0 0 0 0 0 0 0 0 0 0 0 0 0 0 0 0 0 0 0 0 0 0 0 0 0 0 0 0 0 0
0 0 0 0 0 0 0 0 0 0 0 0 0 0 0 0 0 0 0 0 0 0 0 0 0 0 0 0 0 0 0 0 0 0 0 0 0 0 0 0 0 0 0
0 0 0 0 0 0 0 0 0 0 0 0 0 0 0 0 0 0 0 0 0 0 0 0 0 0 0 0 0 0 0 0 0 0 0 0 0 0 0 0 0 0 0
0 0 0 0 0 0 0 0 0 0 0 0 0 0 0 0 0 0 0 0 0 0 0 0 0 0 0 0 0 0 0 0 0 0 0 0 0 0 0 0 0 0 0
0 0 0 0 0 0 0 0 0 0 0 0 0 0 0 0 0 0 0 0 0 0 0 0 0 0 0 0 0 0 0 0 0 0 0 0 0 0 0 0 0 0 0
0 0 0 0 0 0 0 0 0 0 0 0 0 0 0 0 0 0 0 0 0 0 0 0 0 0 0 0 0 0 0 0 0 0 0 0 0 0 0 0 0 0 0
0 0 0 0 0 0 0 0 0 0 0 0 0 0 0 0 0 0 0 0 0 0 0 0 0 0 0 0 0 0 0 0 0 0 0 0 0 0 0 0 0 0 0
0 0 0 0 0 0 0 0 0 0 0 0 0 0 0 0 0 0 0 0 0 0 0 0 0 0 0 0 0 0 0 0 0 0 0 0 0 0 0 0 0 0 0
-0 0 0 0 0 0 0 0 0 0 0 0 0 0 0 0 0 0 0 0 0 0 0 0 0 0 0 0 0 0 0 0 0 0 0 0 0 0 0 0 0 0 0
0 0 0 0 0 0 0 0 0 0 0 0 0 0 0 0 0 0 0 0 0 0 0 0 0 0 0 0 0 0 0 0 0 0 0 0 0 0 0 0 0 0 0
Wind_Speed_500mb
54 47 46 43 41 34 31 29 27 25 23 23 22 22 21 17 14 11 11 10 9 10 13 13 11 12 7 6 5 4 5 2 1 4 5 8 10 12 9 13 14 13 13
42 47 46 42 40 38 32 31 28 26 24 22 20 21 22 21 20 19 17 17 16 15 11 10 9 9 9 9 10 10 8 6 5 2 1 2 6 11 5 8 14 13 13
37 41 41 39 39 38 36 32 29 23 22 21 23 21 20 21 23 25 23 22 20 18 16 10 6 8 10 10 12 9 6 6 6 5 4 5 5 7 6 1 2 5 7
31 36 37 37 37 35 37 35 29 29 28 29 30 30 23 18 20 20 22 23 21 20 17 11 11 11 12 14 16 14 12 10 9 10 9 8 9 8 5 7 8 9 10
26 35 36 37 37 35 31 33 34 32 34 35 32 26 27 26 23 17 18 20 22 22 20 18 19 19 19 21 22 20 19 17 15 14 14 12 12 11 8 9 10 11 10
25 31 37 38 37 41 42 38 39 41 39 30 26 19 24 23 21 18 18 20 21 20 18 17 16 18 19 19 20 21 21 22 22 22 22 19 16 16 14 11 11 13 14
26 32 38 40 40 40 42 42 40 40 43 36 26 24 23 21 19 18 18 18 17 17 15 13 11 10 9 10 10 11 13 16 19 21 23 24 24 24 24 22 17 18 17
27 33 38 44 43 42 41 43 41 41 40 37 29 25 22 20 19 18 16 15 14 12 10 8 6 5 5 6 8 10 10 12 13 14 16 20 26 29 33 31 28 22 21
32 36 39 45 47 44 43 45 42 41 41 35 31 27 24 21 17 15 13 12 11 9 8 7 5 3 4 6 7 9 11 12 14 15 17 15 18 26 32 34 34 32 23
37 40 43 48 48 47 47 47 44 44 39 36 33 31 27 23 21 18 17 15 14 12 9 6 6 7 9 10 10 11 12 13 14 15 16 17 18 22 26 30 32 33 38
44 46 48 52 54 53 52 49 48 47 43 40 38 34 31 28 24 21 19 16 15 12 10 8 9 10 12 13 14 14 15 15 15 16 18 19 19 20 23 24 27 33 37
50 49 51 55 59 59 58 57 55 53 50 47 41 37 36 33 29 26 24 21 17 14 12 10 11 12 13 14 15 18 20 19 19 19 19 19 21 22 22 22 24 26 31
51 54 56 58 61 64 64 63 62 60 57 53 48 46 44 40 37 31 27 23 20 17 14 14 15 15 15 17 20 21 22 22 22 22 21 20 20 21 22 22 23 23 25
60 59 61 63 65 67 68 70 67 67 65 60 56 55 53 48 43 37 33 28 24 21 18 17 16 17 20 22 24 25 25 25 25 24 23 22 21 22 22 23 24 23 24
70 66 66 65 69 71 73 74 74 74 72 67 64 61 58 54 49 43 39 34 29 24 22 20 19 22 24 25 26 27 27 27 27 25 24 23 23 22 20 21 22 19 17
69 71 70 70 72 74 76 77 78 78 77 75 71 67 64 59 55 50 46 41 36 31 26 23 22 20 21 22 22 21 22 24 24 24 24 23 23 22 19 17 16 14 10
68 70 73 75 77 79 81 81 82 81 81 81 78 74 70 66 62 57 53 47 41 36 31 27 24 22 22 22 23 22 23 24 24 24 21 18 15 14 13 12 9 3 12
75 74 75 80 83 84 86 86 88 85 85 85 84 80 77 72 67 64 59 52 46 40 36 31 28 26 24 21 22 23 24 25 25 21 17 15 13 12 11 10 11 11 13
86 82 80 80 85 86 89 92 92 90 89 90 87 85 81 76 73 69 63 57 52 48 43 38 33 30 25 23 21 21 22 23 22 18 16 15 11 9 10 12 12 10 10
78 77 80 81 83 84 89 96 98 96 94 94 91 89 84 81 77 75 70 65 60 56 50 43 39 33 26 24 22 22 22 20 17 15 14 13 12 11 11 11 10 11 16
68 64 67 73 78 86 93 99 104 104 100 98 95 92 89 86 83 80 76 71 68 61 53 49 45 37 29 26 22 18 17 14 10 12 9 4 4 1 6 11 17 20 22
59 53 51 58 71 81 91 97 102 100 102 100 98 97 95 91 88 85 82 77 72 65 63 58 51 43 36 30 21 18 8 11 19 20 16 13 8 7 13 16 15 16 16
49 49 48 52 61 75 83 91 98 98 101 104 105 101 99 94 91 90 85 80 74 70 67 60 55 49 43 33 25 15 8 8 13 19 26 21 18 13 16 13 16 13 13
50 39 43 53 66 71 77 83 93 102 105 106 103 100 99 98 97 95 88 82 78 74 70 65 60 54 48 40 30 24 21 23 15 10 18 22 19 17 16 18 13 15 13
48 40 43 48 57 66 75 82 85 94 100 98 97 97 98 99 99 96 90 86 83 78 74 71 68 62 54 48 39 30 25 26 28 28 23 22 19 20 13 11 12 14 8
35 35 41 44 51 59 66 74 80 87 94 94 95 90 94 100 99 97 93 89 86 84 81 76 71 65 59 53 45 37 32 28 30 31 31 28 24 19 19 17 12 17 16
Wind_Direction_500mb
187 191 193 187 184 190 192 190 186 186 186 186 191 191 194 202 213 214 194 153 154 200 203 219 228 227 217 207 212 196 189 187 34 49 57 58 60 66 49 27 33 36 38
189 192 194 196 195 195 200 201 197 195 199 196 198 200 203 207 207 215 208 199 196 206 210 227 235 251 243 228 237 242 237 221 228 244 313 62 83 110 62 38 46 38 19
190 193 195 195 198 198 201 205 205 202 202 198 199 203 202 209 210 215 211 213 215 222 231 234 248 250 265 265 263 270 279 279 283 275 252 225 195 161 140 109 13 339 351
188 197 198 197 194 196 203 207 207 197 200 202 207 207 212 195 217 217 218 220 224 243 264 279 273 266 261 259 265 274 276 272 269 273 266 257 247 236 222 262 278 293 297
195 200 199 197 196 184 198 199 200 201 207 208 207 221 226 235 248 239 223 223 230 242 247 254 263 271 271 270 272 272 271 270 266 262 258 259 256 250 252 260 273 284 285
216 206 201 200 204 194 198 198 196 199 207 213 231 225 229 235 241 238 231 232 238 244 254 263 268 268 267 272 277 278 276 273 268 262 256 252 252 254 242 248 253 266 280
224 214 207 207 208 208 207 212 214 216 222 238 238 230 229 228 226 226 227 233 241 249 256 259 258 259 271 273 273 279 284 278 272 268 261 253 246 245 245 244 244 253 268
227 222 215 211 213 215 215 217 222 225 230 237 238 232 228 225 223 225 225 227 228 226 224 227 231 248 265 284 295 296 294 290 287 288 279 264 252 246 249 250 248 246 247
224 223 223 219 219 219 219 222 227 229 230 226 228 229 228 226 224 227 227 224 227 226 219 212 224 250 289 308 316 310 302 297 294 292 290 283 265 257 251 253 256 256 253
226 225 224 223 225 223 222 224 226 230 225 224 224 223 220 217 220 221 222 220 223 228 237 258 291 312 324 326 327 320 312 306 302 293 284 277 271 267 265 260 258 259 255
226 225 224 224 225 226 225 227 227 226 226 225 223 221 216 218 221 218 221 218 222 233 249 271 291 309 323 327 332 332 325 318 305 291 284 279 275 270 268 266 263 260 262
235 233 228 225 225 226 226 227 228 228 225 228 227 224 219 220 221 219 219 219 227 238 250 269 289 306 315 327 335 335 332 327 316 304 292 282 274 267 264 263 262 262 264
260 241 239 232 228 228 228 228 228 228 228 228 227 225 223 224 226 222 223 222 230 243 261 277 289 300 312 324 330 331 329 326 319 310 300 288 277 270 267 262 259 259 262
259 252 242 238 235 232 230 230 231 229 229 228 228 226 224 225 225 223 223 228 235 242 255 270 286 303 315 323 325 328 329 326 321 314 305 294 282 275 271 268 261 256 253
258 255 249 242 240 237 234 232 232 231 230 230 229 229 227 226 226 226 226 228 233 243 253 265 283 297 306 314 318 321 322 320 318 313 306 297 286 276 270 268 265 266 269
264 259 251 247 244 240 239 237 235 234 232 230 231 232 230 227 227 227 227 227 228 233 243 257 271 284 297 306 309 313 313 312 311 308 303 294 284 277 269 261 261 265 281
277 268 260 250 244 243 241 239 237 237 234 232 232 232 230 228 227 227 228 227 227 229 236 244 260 275 290 301 305 311 313 315 316 309 298 285 278 278 271 259 246 169 96
279 272 265 255 248 244 242 241 239 237 235 234 233 231 229 227 228 229 229 227 228 231 235 241 253 266 281 294 302 305 308 309 311 297 285 270 265 260 264 268 258 255 255
282 276 268 259 252 246 243 241 240 239 236 235 232 231 230 229 229 230 231 230 230 230 231 236 243 256 273 288 297 301 305 303 295 278 257 242 244 264 262 264 272 268 270
286 279 268 261 253 246 241 240 238 237 235 235 233 232 230 230 230 231 230 229 229 228 230 235 240 251 262 277 290 301 307 300 284 261 245 241 258 264 261 259 266 284 298
294 286 270 259 250 243 238 236 235 234 233 233 232 231 230 231 230 231 230 229 229 229 232 232 237 241 253 268 283 295 301 290 248 216 193 212 209 231 304 292 293 300 301
306 295 275 260 252 249 243 240 236 235 234 234 233 229 229 229 229 230 230 229 229 227 227 230 234 237 245 255 266 288 246 258 242 225 232 277 229 336 324 309 304 309 308
314 301 281 263 253 248 245 239 235 233 233 231 229 228 228 228 229 230 230 230 230 229 230 232 233 235 238 242 253 256 239 216 179 232 246 230 249 296 310 300 305 306 313
314 307 285 261 252 247 241 237 235 234 232 234 235 232 230 228 228 229 228 229 229 229 230 230 231 233 237 239 241 251 257 251 243 245 252 248 234 282 302 310 311 315 323
303 302 286 264 251 247 243 238 234 232 234 237 236 233 231 230 229 228 228 227 227 229 229 230 230 231 235 240 243 243 244 250 254 247 255 254 257 286 291 311 331 344 356
305 289 282 266 252 245 242 241 238 235 233 233 235 235 233 231 230 229 228 228 228 229 228 229 230 231 236 238 239 244 250 247 256 256 256 261 271 281 303 310 322 342 339
Wind_Speed_850mb
54 47 46 43 41 34 31 29 27 25 23 23 22 22 21 17 14 11 11 10 9 10 13 13 11 12 7 6 5 4 5 2 1 4 5 8 10 12 9 13 14 13 13
42 47 46 42 40 38 32 31 28 26 24 22 20 21 22 21 20 19 17 17 16 15 11 10 9 9 9 9 10 10 8 6 5 2 1 2 6 11 5 8 14 13 13
37 41 41 39 39 38 36 32 29 23 22 21 23 21 20 21 23 25 23 22 20 18 16 10 6 8 10 10 12 9 6 6 6 5 4 5 5 7 6 1 2 5 7
31 36 37 37 37 35 37 35 29 29 28 29 30 30 23 18 20 20 22 23 21 20 17 11 11 11 12 14 16 14 12 10 9 10 9 8 9 8 5 7 8 9 10
26 35 36 37 37 35 31 33 34 32 34 35 32 26 27 26 23 17 18 20 22 22 20 18 19 19 19 21 22 20 19 17 15 14 14 12 12 11 8 9 10 11 10
25 31 37 38 37 41 42 38 39 41 39 30 26 19 24 23 21 18 18 20 21 20 18 17 16 18 19 19 20 21 21 22 22 22 22 19 16 16 14 11 11 13 14
26 32 38 40 40 40 42 42 40 40 43 36 26 24 23 21 19 18 18 18 17 17 15 13 11 10 9 10 10 11 13 16 19 21 23 24 24 24 24 22 17 18 17
27 33 38 44 43 42 41 43 41 41 40 37 29 25 22 20 19 18 16 15 14 12 10 8 6 5 5 6 8 10 10 12 13 14 16 20 26 29 33 31 28 22 21
32 36 39 45 47 44 43 45 42 41 41 35 31 27 24 21 17 15 13 12 11 9 8 7 5 3 4 6 7 9 11 12 14 15 17 15 18 26 32 34 34 32 23
37 40 43 48 48 47 47 47 44 44 39 36 33 31 27 23 21 18 17 15 14 12 9 6 6 7 9 10 10 11 12 13 14 15 16 17 18 22 26 30 32 33 38
44 46 48 52 54 53 52 49 48 47 43 40 38 34 31 28 24 21 19 16 15 12 10 8 9 10 12 13 14 14 15 15 15 16 18 19 19 20 23 24 27 33 37
50 49 51 55 59 59 58 57 55 53 50 47 41 37 36 33 29 26 24 21 17 14 12 10 11 12 13 14 15 18 20 19 19 19 19 19 21 22 22 22 24 26 31
51 54 56 58 61 64 64 63 62 60 57 53 48 46 44 40 37 31 27 23 20 17 14 14 15 15 15 17 20 21 22 22 22 22 21 20 20 21 22 22 23 23 25
60 59 61 63 65 67 68 70 67 67 65 60 56 55 53 48 43 37 33 28 24 21 18 17 16 17 20 22 24 25 25 25 25 24 23 22 21 22 22 23 24 23 24
70 66 66 65 69 71 73 74 74 74 72 67 64 61 58 54 49 43 39 34 29 24 22 20 19 22 24 25 26 27 27 27 27 25 24 23 23 22 20 21 22 19 17
69 71 70 70 72 74 76 77 78 78 77 75 71 67 64 59 55 50 46 41 36 31 26 23 22 20 21 22 22 21 22 24 24 24 24 23 23 22 19 17 16 14 10
68 70 73 75 77 79 81 81 82 81 81 81 78 74 70 66 62 57 53 47 41 36 31 27 24 22 22 22 23 22 23 24 24 24 21 18 15 14 13 12 9 3 12
75 74 75 80 83 84 86 86 88 85 85 85 84 80 77 72 67 64 59 52 46 40 36 31 28 26 24 21 22 23 24 25 25 21 17 15 13 12 11 10 11 11 13
86 82 80 80 85 86 89 92 92 90 89 90 87 85 81 76 73 69 63 57 52 48 43 38 33 30 25 23 21 21 22 23 22 18 16 15 11 9 10 12 12 10 10
78 77 80 81 83 84 89 96 98 96 94 94 91 89 84 81 77 75 70 65 60 56 50 43 39 33 26 24 22 22 22 20 17 15 14 13 12 11 11 11 10 11 16
68 64 67 73 78 86 93 99 104 104 100 98 95 92 89 86 83 80 76 71 68 61 53 49 45 37 29 26 22 18 17 14 10 12 9 4 4 1 6 11 17 20 22
59 53 51 58 71 81 91 97 102 100 102 100 98 97 95 91 88 85 82 77 72 65 63 58 51 43 36 30 21 18 8 11 19 20 16 13 8 7 13 16 15 16 16
49 49 48 52 61 75 83 91 98 98 101 104 105 101 99 94 91 90 85 80 74 70 67 60 55 49 43 33 25 15 8 8 13 19 26 21 18 13 16 13 16 13 13
50 39 43 53 66 71 77 83 93 102 105 106 103 100 99 98 97 95 88 82 78 74 70 65 60 54 48 40 30 24 21 23 15 10 18 22 19 17 16 18 13 15 13
48 40 43 48 57 66 75 82 85 94 100 98 97 97 98 99 99 96 90 86 83 78 74 71 68 62 54 48 39 30 25 26 28 28 23 22 19 20 13 11 12 14 8
35 35 41 44 51 59 66 74 80 87 94 94 95 90 94 100 99 97 93 89 86 84 81 76 71 65 59 53 45 37 32 28 30 31 31 28 24 19 19 17 12 17 16
Wind_Direction_850mb
187 191 193 187 184 190 192 190 186 186 186 186 191 191 194 202 213 214 194 153 154 200 203 219 228 227 217 207 212 196 189 187 34 49 57 58 60 66 49 27 33 36 38
189 192 194 196 195 195 200 201 197 195 199 196 198 200 203 207 207 215 208 199 196 206 210 227 235 251 243 228 237 242 237 221 228 244 313 62 83 110 62 38 46 38 19
190 193 195 195 198 198 201 205 205 202 202 198 199 203 202 209 210 215 211 213 215 222 231 234 248 250 265 265 263 270 279 279 283 275 252 225 195 161 140 109 13 339 351
188 197 198 197 194 196 203 207 207 197 200 202 207 207 212 195 217 217 218 220 224 243 264 279 273 266 261 259 265 274 276 272 269 273 266 257 247 236 222 262 278 293 297
195 200 199 197 196 184 198 199 200 201 207 208 207 221 226 235 248 239 223 223 230 242 247 254 263 271 271 270 272 272 271 270 266 262 258 259 256 250 252 260 273 284 285
216 206 201 200 204 194 198 198 196 199 207 213 231 225 229 235 241 238 231 232 238 244 254 263 268 268 267 272 277 278 276 273 268 262 256 252 252 254 242 248 253 266 280
224 214 207 207 208 208 207 212 214 216 222 238 238 230 229 228 226 226 227 233 241 249 256 259 258 259 271 273 273 279 284 278 272 268 261 253 246 245 245 244 244 253 268
227 222 215 211 213 215 215 217 222 225 230 237 238 232 228 225 223 225 225 227 228 226 224 227 231 248 265 284 295 296 294 290 287 288 279 264 252 246 249 250 248 246 247
224 223 223 219 219 219 219 222 227 229 230 226 228 229 228 226 224 227 227 224 227 226 219 212 224 250 289 308 316 310 302 297 294 292 290 283 265 257 251 253 256 256 253
226 225 224 223 225 223 222 224 226 230 225 224 224 223 220 217 220 221 222 220 223 228 237 258 291 312 324 326 327 320 312 306 302 293 284 277 271 267 265 260 258 259 255
226 225 224 224 225 226 225 227 227 226 226 225 223 221 216 218 221 218 221 218 222 233 249 271 291 309 323 327 332 332 325 318 305 291 284 279 275 270 268 266 263 260 262
235 233 228 225 225 226 226 227 228 228 225 228 227 224 219 220 221 219 219 219 227 238 250 269 289 306 315 327 335 335 332 327 316 304 292 282 274 267 264 263 262 262 264
260 241 239 232 228 228 228 228 228 228 228 228 227 225 223 224 226 222 223 222 230 243 261 277 289 300 312 324 330 331 329 326 319 310 300 288 277 270 267 262 259 259 262
259 252 242 238 235 232 230 230 231 229 229 228 228 226 224 225 225 223 223 228 235 242 255 270 286 303 315 323 325 328 329 326 321 314 305 294 282 275 271 268 261 256 253
258 255 249 242 240 237 234 232 232 231 230 230 229 229 227 226 226 226 226 228 233 243 253 265 283 297 306 314 318 321 322 320 318 313 306 297 286 276 270 268 265 266 269
264 259 251 247 244 240 239 237 235 234 232 230 231 232 230 227 227 227 227 227 228 233 243 257 271 284 297 306 309 313 313 312 311 308 303 294 284 277 269 261 261 265 281
277 268 260 250 244 243 241 239 237 237 234 232 232 232 230 228 227 227 228 227 227 229 236 244 260 275 290 301 305 311 313 315 316 309 298 285 278 278 271 259 246 169 96
279 272 265 255 248 244 242 241 239 237 235 234 233 231 229 227 228 229 229 227 228 231 235 241 253 266 281 294 302 305 308 309 311 297 285 270 265 260 264 268 258 255 255
282 276 268 259 252 246 243 241 240 239 236 235 232 231 230 229 229 230 231 230 230 230 231 236 243 256 273 288 297 301 305 303 295 278 257 242 244 264 262 264 272 268 270
286 279 268 261 253 246 241 240 238 237 235 235 233 232 230 230 230 231 230 229 229 228 230 235 240 251 262 277 290 301 307 300 284 261 245 241 258 264 261 259 266 284 298
294 286 270 259 250 243 238 236 235 234 233 233 232 231 230 231 230 231 230 229 229 229 232 232 237 241 253 268 283 295 301 290 248 216 193 212 209 231 304 292 293 300 301
306 295 275 260 252 249 243 240 236 235 234 234 233 229 229 229 229 230 230 229 229 227 227 230 234 237 245 255 266 288 246 258 242 225 232 277 229 336 324 309 304 309 308
314 301 281 263 253 248 245 239 235 233 233 231 229 228 228 228 229 230 230 230 230 229 230 232 233 235 238 242 253 256 239 216 179 232 246 230 249 296 310 300 305 306 313
314 307 285 261 252 247 241 237 235 234 232 234 235 232 230 228 228 229 228 229 229 229 230 230 231 233 237 239 241 251 257 251 243 245 252 248 234 282 302 310 311 315 323
303 302 286 264 251 247 243 238 234 232 234 237 236 233 231 230 229 228 228 227 227 229 229 230 230 231 235 240 243 243 244 250 254 247 255 254 257 286 291 311 331 344 356
305 289 282 266 252 245 242 241 238 235 233 233 235 235 233 231 230 229 228 228 228 229 228 229 230 231 236 238 239 244 250 247 256 256 256 261 271 281 303 310 322 342 339